Weather History for North Myrtle Beach, SC

Change the Weather History Date:

Saturday, June 22, 2013

  Actual Average Record
Temperature  
Mean Temperature 77 °F 78 °F  
Max Temperature 82 °F 86 °F 98 °F (1994)
Min Temperature 71 °F 71 °F 61 °F (2003)
Degree Days  
Heating Degree Days 0 0  
Month to date heating degree days 0 0  
Since 1 June heating degree days 0 0  
Since 1 July heating degree days 2416 2447  
Cooling Degree Days 12 13  
Month to date cooling degree days 270 244  
Year to date cooling degree days 450 456  
Since 1 June cooling degree days 270 244  
Growing Degree Days 26 (Base 50)    
Moisture  
Dew Point 72 °F    
Average Humidity 87    
Maximum Humidity 100    
Minimum Humidity 74    
Precipitation  
Precipitation 0.04 in 0.16 in 0.52 in (2001)
Month to date precipitation 4.88 3.36  
Year to date precipitation 22.32 20.76  
Sea Level Pressure  
Sea Level Pressure 30.14 in    
Wind  
Wind Speed 7 mph (SSW)    
Max Wind Speed 13 mph    
Max Gust Speed 17 mph    
Visibility 8 miles    
Events Rain    
T = Trace of Precipitation, MM = Missing Value Source: NWS Daily Summary

Daily Weather History Graph

Daily Weather History Graph

Search for Another Location

Airport:

Trip Planner

Search our weather history database for the weather conditions in past years. The results will help you decide how hot, cold, wet, or windy it might be!

Date:

Astronomy

Jun. 22, 2013 Rise Set
Actual Time 6:04 AM EDT 8:29 PM EDT
Civil Twilight 5:35 AM EDT 8:58 PM EDT
Nautical Twilight 4:59 AM EDT 9:34 PM EDT
Astronomical Twilight 4:20 AM EDT 10:13 PM EDT
Moon 7:44 PM EDT (6/22) 5:12 AM EDT (6/22)
Length of Visible Light 15h 22m
Length of Day
14h 24m
Waxing Gibbous, 99% of the Moon is Illuminated
Jun 22
Waxing Gibbous
Jun 23
Full
Jun 30
Last Quarter
Jul 8
New
Jul 15
First Quarter

Hourly Weather History & Observations

Time (EDT) Temp. Heat Index Dew Point Humidity Pressure Visibility Wind Dir Wind Speed Gust Speed Precip Events Conditions
12:53 AM 71.1 °F - 70.0 °F 96% 30.14 in 9.0 mi NNE 4.6 mph - N/A   Scattered Clouds
1:53 AM 71.1 °F - 70.0 °F 96% 30.12 in 10.0 mi North 5.8 mph - N/A   Partly Cloudy
2:27 AM 71.6 °F - 69.8 °F 94% 30.10 in 9.0 mi NNE 4.6 mph - N/A   Mostly Cloudy
2:40 AM 71.6 °F - 69.8 °F 94% 30.11 in 9.0 mi North 4.6 mph - N/A   Overcast
2:53 AM 72.0 °F - 70.0 °F 93% 30.10 in 10.0 mi NNE 6.9 mph - N/A   Mostly Cloudy
3:53 AM 72.0 °F - 70.0 °F 93% 30.09 in 10.0 mi North 4.6 mph - N/A   Overcast
4:53 AM 72.0 °F - 70.0 °F 93% 30.09 in 10.0 mi North 4.6 mph - N/A   Overcast
5:53 AM 72.0 °F - 71.1 °F 97% 30.10 in 5.0 mi North 4.6 mph - 0.02 in   Overcast
6:53 AM 72.0 °F - 71.1 °F 97% 30.11 in 3.0 mi North 4.6 mph - 0.01 in   Overcast
7:53 AM 73.0 °F - 71.1 °F 93% 30.12 in 3.0 mi North 4.6 mph - N/A   Overcast
8:53 AM 73.0 °F - 71.1 °F 93% 30.12 in 4.0 mi North 3.5 mph - N/A   Overcast
9:53 AM 73.9 °F - 71.1 °F 91% 30.14 in 5.0 mi Variable 3.5 mph - N/A   Overcast
10:39 AM 75.2 °F - 71.6 °F 89% 30.13 in 5.0 mi West 4.6 mph - N/A   Overcast
10:53 AM 75.0 °F - 71.1 °F 87% 30.14 in 5.0 mi West 3.5 mph - N/A   Overcast
11:31 AM 77.0 °F - 71.6 °F 83% 30.14 in 7.0 mi Calm Calm - N/A   Overcast
11:51 AM 75.2 °F - 73.4 °F 94% 30.15 in 3.0 mi SW 5.8 mph - 0.00 in Rain Light Rain
11:53 AM 75.9 °F - 73.0 °F 91% 30.15 in 3.0 mi SW 6.9 mph - 0.01 in Rain Light Rain
12:03 PM 77.0 °F - 73.4 °F 89% 30.15 in 7.0 mi SW 5.8 mph - 0.00 in Rain Light Rain
12:28 PM 75.2 °F - 71.6 °F 89% 30.16 in 4.0 mi SSW 8.1 mph - 0.00 in   Overcast
12:48 PM 77.0 °F - 73.4 °F 89% 30.16 in 4.0 mi South 6.9 mph - 0.00 in   Overcast
12:53 PM 77.0 °F - 73.0 °F 88% 30.17 in 4.0 mi SSW 6.9 mph - 0.00 in   Overcast
1:01 PM 78.8 °F - 73.4 °F 83% 30.16 in 7.0 mi SSW 8.1 mph - N/A   Overcast
1:10 PM 78.8 °F - 73.4 °F 83% 30.16 in 7.0 mi South 10.4 mph - N/A   Mostly Cloudy
1:18 PM 78.8 °F - 73.4 °F 83% 30.16 in 7.0 mi SW 10.4 mph - N/A   Mostly Cloudy
1:27 PM 78.8 °F - 73.4 °F 83% 30.16 in 7.0 mi South 8.1 mph - N/A   Scattered Clouds
1:53 PM 80.1 °F 83.8 °F 72.0 °F 76% 30.16 in 10.0 mi SSW 11.5 mph - N/A   Scattered Clouds
2:53 PM 80.1 °F 83.8 °F 72.0 °F 76% 30.14 in 10.0 mi SW 9.2 mph - N/A   Clear
3:53 PM 80.1 °F 83.8 °F 72.0 °F 76% 30.13 in 10.0 mi South 9.2 mph - N/A   Mostly Cloudy
4:53 PM 79.0 °F - 73.0 °F 82% 30.13 in 10.0 mi South 8.1 mph - 0.00 in   Overcast
5:14 PM 78.8 °F - 71.6 °F 78% 30.13 in 10.0 mi South 8.1 mph - N/A   Overcast
5:53 PM 79.0 °F - 72.0 °F 79% 30.13 in 10.0 mi SSE 9.2 mph - N/A   Overcast
6:53 PM 78.1 °F - 72.0 °F 81% 30.14 in 10.0 mi South 9.2 mph - N/A   Mostly Cloudy
7:17 PM 78.8 °F - 71.6 °F 78% 30.13 in 10.0 mi South 8.1 mph - N/A   Partly Cloudy
7:53 PM 78.1 °F - 72.0 °F 81% 30.13 in 10.0 mi South 8.1 mph - N/A   Clear
8:53 PM 78.1 °F - 73.0 °F 84% 30.14 in 10.0 mi South 9.2 mph - N/A   Partly Cloudy
9:24 PM 78.8 °F - 73.4 °F 83% 30.14 in 10.0 mi South 8.1 mph - N/A   Mostly Cloudy
9:53 PM 78.1 °F - 73.0 °F 84% 30.15 in 10.0 mi South 11.5 mph - N/A   Mostly Cloudy
10:00 PM 78.8 °F - 73.4 °F 83% 30.15 in 10.0 mi SSW 10.4 mph - N/A   Scattered Clouds
10:53 PM 78.1 °F - 73.0 °F 84% 30.17 in 10.0 mi SSW 9.2 mph - N/A   Partly Cloudy
11:14 PM 77.0 °F - 73.4 °F 89% 30.16 in 10.0 mi South 8.1 mph - N/A   Mostly Cloudy
11:31 PM 78.8 °F - 73.4 °F 83% 30.16 in 10.0 mi SSW 8.1 mph - N/A   Scattered Clouds
11:53 PM 77.0 °F - 72.0 °F 84% 30.17 in 10.0 mi SSW 10.4 mph - N/A   Partly Cloudy